カタログに戻る

FENGYUN 1C DEB

運用中PO
NORAD 31720·DEBRIS·🇨🇳 China

打ち上げ May 10, 1999 から Taiyuan Satellite Launch Center

Loading…

次のパス (今後24時間)

TLE

最新Source: Space-Track

元期: Sep 13, 2026, 07:48 UTC

1 31720U 99025CDT 26256.32532320  .00004853  00000-0  68173-3 0  9997
2 31720  99.0571 204.8189 0094304 351.2032   8.7517 14.74927301 22644

AllMySatでFENGYUN 1C DEBをリアルタイム追跡

Download on the App Store